Dewpoint
53 53 53 52 52 52 51 49 49 48 47 47 47 47 47 48 51 49 49 49 49 49 50 50 51 51 51 50 50 49 49 49 49 48 48 48 47 47 47 46 47 47
53 54 54 53 53 52 51 50 49 49 48 48 48 48 48 49 49 49 48 49 49 49 49 50 50 49 49 49 49 49 49 48 48 49 47 46 46 46 46 47 47 47
54 53 53 53 53 52 51 51 50 49 49 49 49 49 49 51 49 48 49 49 48 48 49 49 49 49 48 48 49 49 48 47 47 47 47 46 46 46 46 46 46 46
53 53 53 53 53 52 52 52 51 50 50 50 50 51 51 52 49 49 49 53 48 48 48 49 49 48 48 48 49 48 48 47 47 48 47 47 48 46 46 47 47 45
54 53 54 54 55 54 53 53 52 51 50 50 50 51 52 51 49 49 49 49 48 48 48 49 48 49 49 49 48 48 49 48 47 47 46 46 47 46 46 46 45 45
54 53 53 54 54 53 53 52 50 51 51 50 51 52 51 50 49 49 49 49 48 48 48 48 48 49 48 48 47 48 48 47 47 47 47 47 47 47 45 45 45 44
53 53 53 54 54 54 53 53 52 52 51 51 51 51 51 51 50 49 49 49 48 50 48 48 48 48 48 48 48 47 47 47 46 46 46 46 48 46 46 46 46 44
53 53 53 53 53 54 53 53 53 53 52 51 50 51 51 51 51 51 51 50 49 49 48 48 49 49 48 48 48 47 48 48 47 46 46 46 46 46 46 47 46 45
53 53 53 53 53 53 53 53 53 53 53 52 51 51 52 51 52 52 52 51 50 51 50 50 49 49 48 48 48 47 47 47 48 46 46 46 45 45 45 46 45 46
52 52 53 53 53 53 53 53 53 53 54 54 53 52 51 52 53 53 53 53 52 52 52 50 50 50 49 48 49 48 48 47 48 47 47 46 46 45 45 46 46 44
52 53 53 53 53 53 53 54 54 54 55 55 54 53 53 53 53 54 53 53 53 53 52 51 51 50 50 50 49 49 48 48 48 48 48 47 47 45 47 45 46 45
52 52 53 53 53 53 53 54 54 54 54 55 55 54 54 54 53 53 54 54 54 53 53 52 52 51 50 51 50 49 49 48 49 48 48 47 47 46 46 45 45 45
51 52 52 52 53 53 54 54 54 54 54 54 55 54 54 53 53 53 53 53 54 54 54 54 53 52 52 52 51 50 50 49 48 48 48 48 47 47 46 46 45 45
51 52 52 52 53 53 53 53 53 53 54 54 54 54 54 54 53 53 53 53 54 54 54 54 54 53 53 52 52 52 51 50 49 48 48 48 48 47 48 47 46 46
51 51 51 52 52 52 52 52 53 53 53 54 53 53 54 54 54 53 53 53 53 52 53 53 53 53 53 53 52 52 51 50 49 49 48 48 48 47 48 48 47 46
50 50 51 50 51 51 51 51 52 52 52 51 52 52 52 52 53 52 52 52 52 52 52 52 52 53 52 49 49 52 52 51 50 50 50 49 49 49 48 48 47 47
50 50 50 50 49 50 50 51 51 52 52 52 51 51 52 52 52 51 52 52 52 52 52 52 52 52 48 46 45 46 51 51 51 51 50 50 49 49 48 49 47 46
47 48 49 50 49 49 49 49 50 50 51 51 51 51 51 51 50 51 51 51 51 51 51 52 52 50 46 45 44 43 46 51 51 50 50 50 50 49 49 49 49 48
45 46 46 46 46 47 46 46 47 48 49 49 51 52 51 51 51 50 50 50 50 51 52 52 52 47 42 42 41 42 41 46 51 51 51 50 50 50 49 49 49 48
43 44 44 43 43 43 44 44 44 44 44 44 45 47 48 48 50 50 50 50 50 50 51 49 49 46 41 41 40 40 40 42 49 50 50 50 50 50 49 49 48 47
39 40 41 40 40 41 42 42 42 39 41 41 42 43 44 44 44 45 46 47 47 47 47 48 47 41 38 38 39 39 39 40 47 47 48 48 48 48 48 48 48 47
39 38 39 39 39 38 39 39 39 40 40 39 39 39 39 39 39 41 41 41 41 42 43 43 43 39 37 37 39 39 39 44 45 46 45 43 42 43 44 45 45 45
39 39 39 38 37 37 37 37 37 37 38 39 38 38 39 40 40 40 38 39 41 41 43 41 41 39 37 37 38 38 41 43 43 42 41 40 39 40 41 43 44 43
39 39 39 39 38 36 37 38 38 38 38 40 39 40 41 40 40 39 37 38 40 41 42 42 40 37 37 38 38 39 41 42 42 41 39 38 37 37 38 39 43 45
39 40 39 39 38 38 39 38 38 38 39 40 39 41 41 41 40 38 36 35 36 38 41 36 35 37 38 38 38 39 41 41 41 39 38 36 36 35 36 36 36 39
40 41 40 39 38 39 39 38 40 40 39 39 38 39 39 38 38 36 35 33 33 33 35 36 36 35 38 37 38 39 39 41 40 39 37 35 35 35 35 34 35 35